Погода в Вышнем Долгом

Россия / Орловская область     52°04′07″N   37°24′05″E
темп.,
°C
ветер,
м/с
пор.,
м/с
влажн.,
%
обл.,
%
осадки,
мм/ч
давл.,
гПа
погр.,
м
6 мая, чт
чт600:00+11ю51171100 0.0 1012261
03:00+11ю41274100 0.0 1012354
06:00+11ю61374100 0.0 1012426
09:00+12ю61270100 0.0 1011749
12:00+15ю101451100 0.0 10101552
15:00+16ююз91352100 0.0 10101844
18:00+14юз61164100 0.1 1009538
21:00+11зсз5777100 0.1 1011423
7 мая, пт
пт700:00+8зсз2595100 3.1 1012286
03:00+8з2592100 4.8 1013182
06:00+7сз379058 0.1 1014210
09:00+11сз35607 0.1 1015871
12:00+14з33405 0.0 10161789
15:00+15ююз33385 0.0 10152033
18:00+14ююз355196 0.0 1015375
21:00+9ююв4766100 0.0 1015107
8 мая, сб
сб800:00+10ююв51360100 0.0 1013310
03:00+10ююв71563100 0.0 1012428
06:00+9ююв81587100 1.4 1009507
09:00+10ю71594100 7.6 1008701
12:00+10ю71395100 2.9 1007692
15:00+11з61092100 5.1 1008774
18:00+10з61086100 0.8 1009907
21:00+6зсз71385100 0.8 1012696
9 мая, вс
вс900:00+5з51287100 0.0 1013642
03:00+4з41089100 0.0 1015528
06:00+3зсз51190100 0.0 1016491
09:00+7сз6970100 0.0 1017911
12:00+10ссз685584 0.0 10181814
15:00+10ссз795388 0.1 10201865
18:00+10с696411 0.1 10221379
21:00+5с49825 0.1 1025236
10 мая, пн
пн1000:00+3ссз410872 0.0 1026190
03:00+3с410874 0.0 1027202
06:00+4с512840 0.0 1028325
09:00+10ссв711610 0.0 10281123
12:00+13ссв811525 0.0 10281420
15:00+14св810505 0.0 10271595
18:00+13св7116173 0.0 10271141
21:00+10ссв613698 0.0 1028432